User: anonymous   Login
Location: Berg
(47.2344°N, 9.5296°E)
Time: 21:20:19
(UTC+00:00)
Language:

Meteor 1-27 - Orbit

View from above orbital plane
View from above orbital plane
View from above satellite
View from above satellite

Ground track
Ground track

The orbit data is extracted from the following two-line orbital elements,

1  9903U 77024A   21111.84239393 -.00000046  00000-0 -33634-4 0  9993
2  9903  81.2517 160.5801 0036921 281.7330  77.9698 14.08275956262781
Epoch (UTC): 21 April 2021 20:13:02
Eccentricity: 0.0036921
inclination: 81.2517°
perigee height: 838 km
apogee height: 892 km
right ascension of ascending node: 160.5801°
argument of perigee: 281.7330°
revolutions per day: 14.08275956
mean anomaly at epoch: 77.9698°
orbit number at epoch: 26278

The dashed part of the orbit path shows where the satellite is in the earth's shadow,  

DLR